| time (UTC) | temp C | wind direction | speed KPH | gust KPH | rain 1hr cm | rain 24hr cm | rain mn cm | humidity % | barometer mb |
| 20260902225351 | 27 | 52 | 1.6 | 1.6 | 0.00 | 0.00 | 0.00 | 65 | 1014.2 |
| 20260902224852 | 27 | 91 | 3.2 | 3.2 | 0.00 | 0.00 | 0.00 | 65 | 1014.2 |
| 20260902224352 | 27 | 172 | 0.0 | 0.0 | 0.00 | 0.00 | 0.00 | 65 | 1014.6 |
| 20260902223851 | 27 | 172 | 3.2 | 3.2 | 0.00 | 0.00 | 0.00 | 65 | 1014.6 |
| 20260902223351 | 27 | 114 | 0.0 | 0.0 | 0.00 | 0.00 | 0.00 | 62 | 1014.6 |
| 20260902222851 | 27 | 5 | 0.0 | 0.0 | 0.00 | 0.00 | 0.00 | 61 | 1014.6 |
| 20260902222351 | 27 | 1 | 4.8 | 4.8 | 0.00 | 0.00 | 0.00 | 61 | 1014.6 |
| 20260902221852 | 27 | 332 | 0.0 | 0.0 | 0.00 | 0.00 | 0.00 | 60 | 1014.6 |
| 20260902221352 | 27 | 50 | 0.0 | 0.0 | 0.00 | 0.00 | 0.00 | 64 | 1014.6 |
| 20260902220852 | 27 | 62 | 3.2 | 3.2 | 0.00 | 0.00 | 0.00 | 66 | 1014.6 |
| 20260902220352 | 26 | 36 | 3.2 | 3.2 | 0.00 | 0.00 | 0.00 | 65 | 1014.6 |
| 20260902215855 | 27 | 63 | 3.2 | 3.2 | 0.00 | 0.00 | 0.00 | 67 | 1014.6 |
| 20260902215352 | 27 | 44 | 3.2 | 3.2 | 0.00 | 0.00 | 0.00 | 66 | 1014.6 |
| 20260902214853 | 27 | 96 | 0.0 | 0.0 | 0.00 | 0.00 | 0.00 | 65 | 1014.9 |
| 20260902214352 | 27 | 96 | 6.4 | 6.4 | 0.00 | 0.00 | 0.00 | 65 | 1014.6 |
| 20260902213851 | 27 | 48 | 4.8 | 4.8 | 0.00 | 0.00 | 0.00 | 65 | 1014.6 |
| 20260902213351 | 27 | 43 | 3.2 | 3.2 | 0.00 | 0.00 | 0.00 | 65 | 1014.9 |
| 20260902212851 | 27 | 92 | 11.3 | 11.3 | 0.00 | 0.00 | 0.00 | 65 | 1014.6 |
| 20260902212351 | 27 | 325 | 3.2 | 3.2 | 0.00 | 0.00 | 0.00 | 66 | 1014.9 |
| 20260902211851 | 27 | 66 | 3.2 | 3.2 | 0.00 | 0.00 | 0.00 | 66 | 1014.9 |
| 20260902211351 | 27 | 40 | 3.2 | 3.2 | 0.00 | 0.00 | 0.00 | 65 | 1014.9 |
| 20260902210854 | 27 | 48 | 4.8 | 4.8 | 0.00 | 0.00 | 0.00 | 64 | 1014.6 |
| 20260902210352 | 27 | 58 | 3.2 | 3.2 | 0.00 | 0.00 | 0.00 | 62 | 1014.9 |
| 20260902205851 | 27 | 7 | 3.2 | 3.2 | 0.00 | 0.00 | 0.00 | 63 | 1014.9 |
| 20260902205351 | 27 | 55 | 4.8 | 4.8 | 0.00 | 0.00 | 0.00 | 62 | 1014.6 |
| 20260902204851 | 27 | 56 | 4.8 | 4.8 | 0.00 | 0.00 | 0.00 | 62 | 1014.9 |
| 20260902204352 | 27 | 50 | 3.2 | 3.2 | 0.00 | 0.00 | 0.00 | 62 | 1014.9 |
| 20260902203851 | 27 | 96 | 3.2 | 3.2 | 0.00 | 0.00 | 0.00 | 63 | 1014.6 |
| 20260902203351 | 27 | 44 | 4.8 | 4.8 | 0.00 | 0.00 | 0.00 | 64 | 1014.9 |
| 20260902202851 | 27 | 78 | 4.8 | 4.8 | 0.00 | 0.00 | 0.00 | 64 | 1014.6 |
| 20260902202351 | 27 | 107 | 3.2 | 3.2 | 0.00 | 0.00 | 0.00 | 63 | 1014.6 |
| 20260902201852 | 27 | 107 | 3.2 | 3.2 | 0.00 | 0.00 | 0.00 | 63 | 1014.9 |
| 20260902201352 | 27 | 63 | 6.4 | 8.0 | 0.00 | 0.00 | 0.00 | 63 | 1014.6 |
| 20260902200352 | 28 | 83 | 0.0 | 0.0 | 0.00 | 0.00 | 0.00 | 60 | 1014.9 |
| 20260902195852 | 28 | 83 | 0.0 | 0.0 | 0.00 | 0.00 | 0.00 | 60 | 1014.9 |
| 20260902195352 | 28 | 83 | 0.0 | 0.0 | 0.00 | 0.00 | 0.00 | 60 | 1014.6 |
| 20260902194851 | 28 | 90 | 3.2 | 3.2 | 0.00 | 0.00 | 0.00 | 61 | 1014.6 |
| 20260902194351 | 27 | 138 | 0.0 | 0.0 | 0.00 | 0.00 | 0.00 | 61 | 1014.6 |
| 20260902193854 | 28 | 75 | 0.0 | 0.0 | 0.00 | 0.00 | 0.00 | 61 | 1014.9 |
| 20260902193357 | 28 | 140 | 1.6 | 1.6 | 0.00 | 0.00 | 0.00 | 61 | 1014.9 |
| 20260902192853 | 28 | 107 | 0.0 | 0.0 | 0.00 | 0.00 | 0.00 | 61 | 1014.9 |
| 20260902192352 | 28 | 6 | 0.0 | 0.0 | 0.00 | 0.00 | 0.00 | 62 | 1014.9 |
| 20260902191852 | 28 | 65 | 3.2 | 3.2 | 0.00 | 0.00 | 0.00 | 61 | 1014.9 |
| 20260902191351 | 28 | 84 | 4.8 | 4.8 | 0.00 | 0.00 | 0.00 | 60 | 1014.9 |
| 20260902190852 | 28 | 59 | 4.8 | 4.8 | 0.00 | 0.00 | 0.00 | 60 | 1014.9 |
| 20260902190351 | 28 | 55 | 4.8 | 4.8 | 0.00 | 0.00 | 0.00 | 60 | 1014.9 |
| 20260902185853 | 28 | 90 | 0.0 | 0.0 | 0.00 | 0.00 | 0.00 | 61 | 1014.9 |
| 20260902185354 | 28 | 60 | 4.8 | 4.8 | 0.00 | 0.00 | 0.00 | 62 | 1014.9 |
| 20260902184855 | 28 | 270 | 0.0 | 0.0 | 0.00 | 0.00 | 0.00 | 60 | 1014.9 |
| 20260902184354 | 28 | 267 | 1.6 | 1.6 | 0.00 | 0.00 | 0.00 | 58 | 1014.9 |
| 20260902183857 | 28 | 173 | 0.0 | 0.0 | 0.00 | 0.00 | 0.00 | 60 | 1014.9 |
| 20260902183352 | 28 | 173 | 0.0 | 0.0 | 0.00 | 0.00 | 0.00 | 59 | 1014.9 |
| 20260902182852 | 28 | 173 | 0.0 | 0.0 | 0.00 | 0.00 | 0.00 | 59 | 1014.9 |
| 20260902182352 | 29 | 178 | 0.0 | 0.0 | 0.00 | 0.00 | 0.00 | 58 | 1014.9 |
| 20260902181852 | 29 | 178 | 0.0 | 0.0 | 0.00 | 0.00 | 0.00 | 56 | 1014.9 |
| 20260902181351 | 30 | 89 | 3.2 | 3.2 | 0.00 | 0.00 | 0.00 | 52 | 1014.9 |
| 20260902180852 | 30 | 121 | 0.0 | 0.0 | 0.00 | 0.00 | 0.00 | 54 | 1014.9 |
| 20260902180355 | 30 | 82 | 3.2 | 3.2 | 0.00 | 0.00 | 0.00 | 53 | 1014.9 |
| 20260902175853 | 30 | 37 | 6.4 | 6.4 | 0.00 | 0.00 | 0.00 | 55 | 1014.9 |
| 20260902175352 | 30 | 72 | 0.0 | 0.0 | 0.00 | 0.00 | 0.00 | 52 | 1014.9 |
| 20260902174852 | 30 | 200 | 3.2 | 3.2 | 0.00 | 0.00 | 0.00 | 52 | 1014.9 |
| 20260902174352 | 30 | 360 | 3.2 | 3.2 | 0.00 | 0.00 | 0.00 | 48 | 1014.9 |
| 20260902173851 | 30 | 294 | 4.8 | 4.8 | 0.00 | 0.00 | 0.00 | 48 | 1014.9 |
| 20260902173352 | 30 | 306 | 3.2 | 3.2 | 0.00 | 0.00 | 0.00 | 53 | 1014.6 |
| 20260902172851 | 31 | 328 | 3.2 | 3.2 | 0.00 | 0.00 | 0.00 | 45 | 1014.9 |
| 20260902172352 | 31 | 9 | 4.8 | 4.8 | 0.00 | 0.00 | 0.00 | 48 | 1014.9 |
| 20260902171851 | 31 | 324 | 1.6 | 1.6 | 0.00 | 0.00 | 0.00 | 48 | 1014.6 |
| 20260902171353 | 31 | 316 | 3.2 | 3.2 | 0.00 | 0.00 | 0.00 | 49 | 1014.9 |
| 20260902170852 | 31 | 6 | 6.4 | 8.0 | 0.00 | 0.00 | 0.00 | 48 | 1014.6 |
| 20260902170352 | 31 | 278 | 3.2 | 3.2 | 0.00 | 0.00 | 0.00 | 49 | 1014.9 |
| 20260902165856 | 31 | 55 | 3.2 | 3.2 | 0.00 | 0.00 | 0.00 | 47 | 1014.6 |
| 20260902165351 | 31 | 337 | 3.2 | 3.2 | 0.00 | 0.00 | 0.00 | 45 | 1014.6 |
| 20260902164851 | 32 | 65 | 4.8 | 6.4 | 0.00 | 0.00 | 0.00 | 44 | 1014.2 |
| 20260902164352 | 31 | 42 | 8.0 | 8.0 | 0.00 | 0.00 | 0.00 | 44 | 1014.6 |
| 20260902163852 | 31 | 68 | 1.6 | 1.6 | 0.00 | 0.00 | 0.00 | 45 | 1014.2 |
| 20260902163352 | 32 | 222 | 0.0 | 0.0 | 0.00 | 0.00 | 0.00 | 44 | 1014.6 |
| 20260902162852 | 32 | 204 | 1.6 | 1.6 | 0.00 | 0.00 | 0.00 | 44 | 1014.2 |
| 20260902162352 | 32 | 360 | 0.0 | 0.0 | 0.00 | 0.00 | 0.00 | 44 | 1014.2 |
| 20260902161853 | 32 | 286 | 3.2 | 3.2 | 0.00 | 0.00 | 0.00 | 45 | 1014.2 |
| 20260902161352 | 32 | 89 | 4.8 | 4.8 | 0.00 | 0.00 | 0.00 | 46 | 1014.2 |
| 20260902160852 | 32 | 270 | 8.0 | 8.0 | 0.00 | 0.00 | 0.00 | 45 | 1013.9 |
| 20260902155905 | 32 | 263 | 8.0 | 9.7 | 0.00 | 0.00 | 0.00 | 48 | 1013.9 |
| 20260902155351 | 32 | 305 | 14.5 | 17.7 | 0.00 | 0.00 | 0.00 | 48 | 1013.9 |
| 20260902154852 | 32 | 300 | 8.0 | 11.3 | 0.00 | 0.00 | 0.00 | 48 | 1013.9 |
| 20260902154352 | 32 | 291 | 9.7 | 11.3 | 0.00 | 0.00 | 0.00 | 47 | 1013.9 |
| 20260902153852 | 32 | 239 | 12.9 | 12.9 | 0.00 | 0.00 | 0.00 | 47 | 1013.9 |
| 20260902153352 | 32 | 253 | 12.9 | 12.9 | 0.00 | 0.00 | 0.00 | 47 | 1013.9 |
| 20260902152851 | 33 | 341 | 22.5 | 25.7 | 0.00 | 0.00 | 0.00 | 46 | 1013.9 |
| 20260902152352 | 33 | 286 | 14.5 | 16.1 | 0.00 | 0.00 | 0.00 | 45 | 1014.2 |
| 20260902151852 | 33 | 5 | 17.7 | 20.9 | 0.00 | 0.00 | 0.00 | 45 | 1014.2 |
| 20260902151352 | 33 | 288 | 12.9 | 12.9 | 0.00 | 0.00 | 0.00 | 44 | 1014.2 |
| 20260902150901 | 33 | 298 | 11.3 | 12.9 | 0.00 | 0.00 | 0.00 | 44 | 1014.2 |
| 20260902150351 | 32 | 312 | 22.5 | 27.4 | 0.00 | 0.00 | 0.00 | 44 | 1014.2 |
| 20260902145851 | 32 | 192 | 8.0 | 8.0 | 0.00 | 0.00 | 0.00 | 44 | 1014.2 |
| 20260902145352 | 32 | 291 | 22.5 | 24.1 | 0.00 | 0.00 | 0.00 | 43 | 1014.2 |
| 20260902144852 | 33 | 246 | 14.5 | 14.5 | 0.00 | 0.00 | 0.00 | 43 | 1014.2 |
| 20260902144352 | 33 | 304 | 17.7 | 19.3 | 0.00 | 0.00 | 0.00 | 42 | 1014.2 |
| 20260902143853 | 33 | 292 | 17.7 | 19.3 | 0.00 | 0.00 | 0.00 | 43 | 1014.2 |
| 20260902143352 | 33 | 282 | 11.3 | 11.3 | 0.00 | 0.00 | 0.00 | 44 | 1014.2 |
| 20260902142852 | 33 | 300 | 12.9 | 12.9 | 0.00 | 0.00 | 0.00 | 43 | 1014.2 |
| 20260902142352 | 33 | 301 | 16.1 | 17.7 | 0.00 | 0.00 | 0.00 | 45 | 1014.2 |
| 20260902141851 | 33 | 270 | 12.9 | 12.9 | 0.00 | 0.00 | 0.00 | 43 | 1014.2 |
| 20260902141352 | 33 | 222 | 4.8 | 4.8 | 0.00 | 0.00 | 0.00 | 43 | 1014.2 |
| 20260902140853 | 34 | 251 | 16.1 | 19.3 | 0.00 | 0.00 | 0.00 | 42 | 1014.2 |
| 20260902140351 | 34 | 294 | 11.3 | 11.3 | 0.00 | 0.00 | 0.00 | 42 | 1014.2 |
| 20260902135853 | 34 | 252 | 14.5 | 17.7 | 0.00 | 0.00 | 0.00 | 38 | 1014.2 |
| 20260902135352 | 34 | 284 | 14.5 | 14.5 | 0.00 | 0.00 | 0.00 | 39 | 1014.2 |
| 20260902134853 | 34 | 232 | 6.4 | 8.0 | 0.00 | 0.00 | 0.00 | 38 | 1014.2 |
| 20260902134351 | 34 | 306 | 11.3 | 11.3 | 0.00 | 0.00 | 0.00 | 39 | 1014.2 |
| 20260902133852 | 34 | 281 | 11.3 | 11.3 | 0.00 | 0.00 | 0.00 | 34 | 1014.2 |
| 20260902133351 | 34 | 306 | 14.5 | 14.5 | 0.00 | 0.00 | 0.00 | 36 | 1014.2 |
| 20260902132905 | 34 | 282 | 16.1 | 17.7 | 0.00 | 0.00 | 0.00 | 37 | 1014.2 |
| 20260902132351 | 34 | 275 | 14.5 | 16.1 | 0.00 | 0.00 | 0.00 | 38 | 1014.2 |
| 20260902131851 | 35 | 258 | 16.1 | 17.7 | 0.00 | 0.00 | 0.00 | 38 | 1014.6 |
| 20260902131351 | 35 | 292 | 12.9 | 12.9 | 0.00 | 0.00 | 0.00 | 36 | 1014.2 |
| 20260902130852 | 35 | 216 | 12.9 | 12.9 | 0.00 | 0.00 | 0.00 | 34 | 1014.2 |
| 20260902130352 | 35 | 270 | 16.1 | 17.7 | 0.00 | 0.00 | 0.00 | 31 | 1014.2 |
| 20260902125852 | 35 | 276 | 9.7 | 11.3 | 0.00 | 0.00 | 0.00 | 30 | 1014.2 |
| 20260902125353 | 35 | 240 | 12.9 | 12.9 | 0.00 | 0.00 | 0.00 | 30 | 1014.6 |
| 20260902124851 | 35 | 280 | 8.0 | 9.7 | 0.00 | 0.00 | 0.00 | 30 | 1014.2 |
| 20260902124351 | 35 | 318 | 8.0 | 11.3 | 0.00 | 0.00 | 0.00 | 32 | 1014.2 |
| 20260902123852 | 35 | 275 | 14.5 | 14.5 | 0.00 | 0.00 | 0.00 | 32 | 1014.6 |
| 20260902123351 | 35 | 240 | 12.9 | 14.5 | 0.00 | 0.00 | 0.00 | 29 | 1014.6 |
| 20260902122851 | 35 | 283 | 8.0 | 9.7 | 0.00 | 0.00 | 0.00 | 31 | 1014.6 |
| 20260902122351 | 35 | 280 | 12.9 | 12.9 | 0.00 | 0.00 | 0.00 | 32 | 1014.2 |
| 20260902121852 | 35 | 276 | 4.8 | 6.4 | 0.00 | 0.00 | 0.00 | 31 | 1014.6 |
| 20260902121351 | 35 | 258 | 8.0 | 11.3 | 0.00 | 0.00 | 0.00 | 32 | 1014.6 |
| 20260902120851 | 35 | 348 | 8.0 | 8.0 | 0.00 | 0.00 | 0.00 | 33 | 1014.6 |
| 20260902120351 | 35 | 324 | 8.0 | 8.0 | 0.00 | 0.00 | 0.00 | 32 | 1014.6 |
| 20260902115851 | 35 | 300 | 14.5 | 17.7 | 0.00 | 0.00 | 0.00 | 29 | 1014.6 |
| 20260902115352 | 35 | 264 | 8.0 | 8.0 | 0.00 | 0.00 | 0.00 | 28 | 1014.6 |
| 20260902114853 | 35 | 264 | 17.7 | 22.5 | 0.00 | 0.00 | 0.00 | 29 | 1014.9 |
| 20260902114351 | 35 | 305 | 11.3 | 12.9 | 0.00 | 0.00 | 0.00 | 32 | 1014.6 |
| 20260902113851 | 35 | 328 | 9.7 | 11.3 | 0.00 | 0.00 | 0.00 | 31 | 1014.9 |
| 20260902113351 | 35 | 312 | 8.0 | 11.3 | 0.00 | 0.00 | 0.00 | 32 | 1014.6 |
| 20260902112852 | 35 | 294 | 4.8 | 6.4 | 0.00 | 0.00 | 0.00 | 30 | 1014.9 |
| 20260902112351 | 35 | 283 | 4.8 | 4.8 | 0.00 | 0.00 | 0.00 | 32 | 1014.9 |
| 20260902111851 | 35 | 301 | 6.4 | 8.0 | 0.00 | 0.00 | 0.00 | 29 | 1014.9 |
| 20260902111351 | 35 | 295 | 12.9 | 14.5 | 0.00 | 0.00 | 0.00 | 30 | 1015.2 |
| 20260902110851 | 35 | 289 | 8.0 | 8.0 | 0.00 | 0.00 | 0.00 | 31 | 1015.2 |
| 20260902110351 | 35 | 318 | 8.0 | 9.7 | 0.00 | 0.00 | 0.00 | 30 | 1015.2 |
| 20260902105851 | 35 | 228 | 11.3 | 12.9 | 0.00 | 0.00 | 0.00 | 32 | 1015.2 |
| 20260902105351 | 35 | 270 | 12.9 | 12.9 | 0.00 | 0.00 | 0.00 | 31 | 1015.2 |
| 20260902104854 | 34 | 318 | 8.0 | 8.0 | 0.00 | 0.00 | 0.00 | 32 | 1015.2 |
| 20260902104351 | 34 | 240 | 9.7 | 11.3 | 0.00 | 0.00 | 0.00 | 32 | 1015.2 |
| 20260902103851 | 34 | 252 | 11.3 | 11.3 | 0.00 | 0.00 | 0.00 | 32 | 1015.2 |
| 20260902103354 | 35 | 336 | 6.4 | 8.0 | 0.00 | 0.00 | 0.00 | 31 | 1015.2 |
| 20260902102851 | 35 | 66 | 3.2 | 3.2 | 0.00 | 0.00 | 0.00 | 32 | 1015.2 |
| 20260902102351 | 35 | 42 | 6.4 | 8.0 | 0.00 | 0.00 | 0.00 | 31 | 1015.2 |
| 20260902101852 | 36 | 150 | 4.8 | 4.8 | 0.00 | 0.00 | 0.00 | 33 | 1015.2 |
| 20260902101351 | 35 | 315 | 3.2 | 3.2 | 0.00 | 0.00 | 0.00 | 33 | 1015.2 |
| 20260902100852 | 35 | 180 | 4.8 | 6.4 | 0.00 | 0.00 | 0.00 | 34 | 1015.6 |
| 20260902100352 | 36 | 228 | 8.0 | 8.0 | 0.00 | 0.00 | 0.00 | 33 | 1015.6 |
| 20260902095851 | 36 | 120 | 3.2 | 3.2 | 0.00 | 0.00 | 0.00 | 32 | 1015.6 |
| 20260902095353 | 35 | 186 | 3.2 | 3.2 | 0.00 | 0.00 | 0.00 | 34 | 1015.9 |
| 20260902094851 | 33 | 84 | 0.0 | 0.0 | 0.00 | 0.00 | 0.00 | 34 | 1015.6 |
| 20260902094351 | 33 | 108 | 0.0 | 0.0 | 0.00 | 0.00 | 0.00 | 33 | 1015.9 |
| 20260902093851 | 35 | 126 | 0.0 | 0.0 | 0.00 | 0.00 | 0.00 | 34 | 1015.9 |
| 20260902093352 | 34 | 90 | 0.0 | 0.0 | 0.00 | 0.00 | 0.00 | 36 | 1015.9 |
| 20260902092851 | 34 | 353 | 0.0 | 0.0 | 0.00 | 0.00 | 0.00 | 36 | 1015.9 |
| 20260902092352 | 34 | 174 | 0.0 | 0.0 | 0.00 | 0.00 | 0.00 | 35 | 1015.9 |
| 20260902091852 | 33 | 48 | 1.6 | 1.6 | 0.00 | 0.00 | 0.00 | 35 | 1015.9 |
| 20260902091351 | 32 | 132 | 0.0 | 0.0 | 0.00 | 0.00 | 0.00 | 35 | 1016.3 |
| 20260902090852 | 33 | 66 | 0.0 | 0.0 | 0.00 | 0.00 | 0.00 | 35 | 1016.3 |
| 20260902090351 | 33 | 5 | 1.6 | 1.6 | 0.00 | 0.00 | 0.00 | 36 | 1015.9 |
| 20260902085851 | 33 | 114 | 3.2 | 3.2 | 0.00 | 0.00 | 0.00 | 36 | 1016.3 |
| 20260902085351 | 33 | 138 | 3.2 | 3.2 | 0.00 | 0.00 | 0.00 | 37 | 1016.3 |
| 20260902084851 | 32 | 60 | 0.0 | 0.0 | 0.00 | 0.00 | 0.00 | 39 | 1016.3 |
| 20260902084351 | 33 | 60 | 3.2 | 3.2 | 0.00 | 0.00 | 0.00 | 37 | 1016.3 |
| 20260902083851 | 33 | 120 | 0.0 | 0.0 | 0.00 | 0.00 | 0.00 | 37 | 1016.3 |
| 20260902083350 | 33 | 66 | 0.0 | 0.0 | 0.00 | 0.00 | 0.00 | 39 | 1016.6 |
| 20260902082852 | 32 | 168 | 4.8 | 4.8 | 0.00 | 0.00 | 0.00 | 40 | 1016.6 |
| 20260902082351 | 31 | 126 | 3.2 | 3.2 | 0.00 | 0.00 | 0.00 | 39 | 1016.6 |
| 20260902081852 | 32 | 108 | 0.0 | 0.0 | 0.00 | 0.00 | 0.00 | 38 | 1016.6 |
| 20260902081352 | 32 | 78 | 3.2 | 3.2 | 0.00 | 0.00 | 0.00 | 39 | 1016.6 |
| 20260902080851 | 32 | 132 | 0.0 | 0.0 | 0.00 | 0.00 | 0.00 | 39 | 1016.9 |
| 20260902080352 | 31 | 360 | 0.0 | 0.0 | 0.00 | 0.00 | 0.00 | 40 | 1016.9 |
| 20260902075851 | 32 | 66 | 1.6 | 1.6 | 0.00 | 0.00 | 0.00 | 39 | 1016.6 |
| 20260902075351 | 31 | 48 | 0.0 | 0.0 | 0.00 | 0.00 | 0.00 | 38 | 1016.9 |
| 20260902074851 | 31 | 138 | 0.0 | 0.0 | 0.00 | 0.00 | 0.00 | 37 | 1016.9 |
| 20260902074351 | 31 | 180 | 0.0 | 0.0 | 0.00 | 0.00 | 0.00 | 41 | 1016.6 |
| 20260902073851 | 31 | 100 | 0.0 | 0.0 | 0.00 | 0.00 | 0.00 | 39 | 1016.9 |
| 20260902073351 | 31 | 126 | 1.6 | 1.6 | 0.00 | 0.00 | 0.00 | 41 | 1016.9 |
| 20260902072851 | 30 | 89 | 0.0 | 0.0 | 0.00 | 0.00 | 0.00 | 43 | 1016.9 |
| 20260902072353 | 30 | 193 | 4.8 | 4.8 | 0.00 | 0.00 | 0.00 | 44 | 1016.9 |
| 20260902071851 | 29 | 186 | 0.0 | 0.0 | 0.00 | 0.00 | 0.00 | 45 | 1016.9 |
| 20260902071352 | 29 | 193 | 0.0 | 0.0 | 0.00 | 0.00 | 0.00 | 49 | 1016.9 |
| 20260902070852 | 28 | 228 | 3.2 | 3.2 | 0.00 | 0.00 | 0.00 | 50 | 1016.9 |
| 20260902070352 | 29 | 228 | 8.0 | 9.7 | 0.00 | 0.00 | 0.00 | 50 | 1016.9 |
| 20260902065851 | 28 | 222 | 3.2 | 3.2 | 0.00 | 0.00 | 0.00 | 50 | 1016.9 |
| 20260902065351 | 28 | 234 | 4.8 | 4.8 | 0.00 | 0.00 | 0.00 | 52 | 1016.9 |
| 20260902064851 | 28 | 278 | 6.4 | 6.4 | 0.00 | 0.00 | 0.00 | 51 | 1016.9 |
| 20260902064351 | 28 | 248 | 1.6 | 1.6 | 0.00 | 0.00 | 0.00 | 51 | 1017.3 |
| 20260902063852 | 28 | 144 | 3.2 | 3.2 | 0.00 | 0.00 | 0.00 | 53 | 1016.9 |
| 20260902063351 | 28 | 133 | 3.2 | 3.2 | 0.00 | 0.00 | 0.00 | 52 | 1017.3 |
| 20260902062851 | 27 | 133 | 3.2 | 3.2 | 0.00 | 0.00 | 0.00 | 53 | 1017.3 |
| 20260902062351 | 27 | 115 | 3.2 | 3.2 | 0.00 | 0.00 | 0.00 | 53 | 1017.3 |
| 20260902061851 | 27 | 138 | 1.6 | 1.6 | 0.00 | 0.00 | 0.00 | 55 | 1017.3 |
| 20260902061351 | 27 | 162 | 11.3 | 11.3 | 0.00 | 0.00 | 0.00 | 58 | 1017.3 |
| 20260902060851 | 27 | 172 | 3.2 | 3.2 | 0.00 | 0.00 | 0.00 | 56 | 1017.3 |
| 20260902060351 | 26 | 121 | 4.8 | 4.8 | 0.00 | 0.00 | 0.00 | 59 | 1017.3 |
| 20260902055852 | 26 | 212 | 4.8 | 4.8 | 0.00 | 0.00 | 0.00 | 62 | 1017.3 |
| 20260902055351 | 26 | 198 | 6.4 | 6.4 | 0.00 | 0.00 | 0.00 | 61 | 1017.3 |
| 20260902054851 | 26 | 173 | 3.2 | 3.2 | 0.00 | 0.00 | 0.00 | 63 | 1017.3 |
| 20260902054351 | 26 | 132 | 0.0 | 0.0 | 0.00 | 0.00 | 0.00 | 61 | 1017.3 |
| 20260902053851 | 26 | 132 | 0.0 | 0.0 | 0.00 | 0.00 | 0.00 | 61 | 1017.3 |
| 20260902053351 | 26 | 141 | 0.0 | 0.0 | 0.00 | 0.00 | 0.00 | 63 | 1017.3 |
| 20260902052851 | 26 | 141 | 3.2 | 3.2 | 0.00 | 0.00 | 0.00 | 61 | 1017.3 |
| 20260902052351 | 26 | 141 | 0.0 | 0.0 | 0.00 | 0.00 | 0.00 | 62 | 1017.3 |
| 20260902051851 | 25 | 141 | 0.0 | 0.0 | 0.00 | 0.00 | 0.00 | 64 | 1017.3 |
| 20260902051353 | 26 | 141 | 1.6 | 1.6 | 0.00 | 0.00 | 0.00 | 63 | 1017.3 |
| 20260902050852 | 26 | 144 | 0.0 | 0.0 | 0.00 | 0.00 | 0.00 | 64 | 1017.3 |
| 20260902050352 | 25 | 144 | 0.0 | 0.0 | 0.00 | 0.00 | 0.00 | 64 | 1017.3 |
| 20260902045852 | 25 | 144 | 0.0 | 0.0 | 0.00 | 0.00 | 0.00 | 66 | 1017.6 |
| 20260902045352 | 25 | 144 | 0.0 | 0.0 | 0.00 | 0.00 | 0.00 | 69 | 1017.3 |
| 20260902044851 | 24 | 157 | 1.6 | 1.6 | 0.00 | 0.00 | 0.00 | 69 | 1017.3 |
| 20260902044351 | 23 | 156 | 0.0 | 0.0 | 0.00 | 0.00 | 0.00 | 70 | 1017.3 |
| 20260902043852 | 23 | 170 | 0.0 | 0.0 | 0.00 | 0.00 | 0.00 | 71 | 1017.3 |
| 20260902043351 | 23 | 170 | 0.0 | 0.0 | 0.00 | 0.00 | 0.00 | 72 | 1017.3 |
| 20260902042852 | 23 | 170 | 3.2 | 3.2 | 0.00 | 0.00 | 0.00 | 72 | 1017.3 |
| 20260902042351 | 22 | 231 | 3.2 | 3.2 | 0.00 | 0.00 | 0.00 | 74 | 1017.3 |
| 20260902041851 | 22 | 120 | 0.0 | 0.0 | 0.00 | 0.00 | 0.00 | 74 | 1016.9 |
| 20260902041351 | 22 | 169 | 4.8 | 4.8 | 0.00 | 0.00 | 0.00 | 74 | 1017.3 |
| 20260902040852 | 22 | 247 | 1.6 | 1.6 | 0.00 | 0.00 | 0.00 | 75 | 1017.3 |
| 20260902040352 | 22 | 218 | 11.3 | 11.3 | 0.00 | 0.00 | 0.00 | 76 | 1017.3 |
| 20260902035851 | 22 | 227 | 8.0 | 9.7 | 0.00 | 0.00 | 0.00 | 76 | 1017.3 |
| 20260902035352 | 22 | 218 | 12.9 | 12.9 | 0.00 | 0.00 | 0.00 | 77 | 1017.3 |
| 20260902034851 | 22 | 211 | 12.9 | 14.5 | 0.00 | 0.00 | 0.00 | 77 | 1016.9 |
| 20260902034353 | 23 | 236 | 3.2 | 3.2 | 0.00 | 0.00 | 0.00 | 75 | 1016.9 |
| 20260902033852 | 23 | 236 | 0.0 | 0.0 | 0.00 | 0.00 | 0.00 | 74 | 1016.9 |
| 20260902033351 | 23 | 236 | 0.0 | 0.0 | 0.00 | 0.00 | 0.00 | 74 | 1016.9 |
| 20260902032851 | 23 | 236 | 0.0 | 0.0 | 0.00 | 0.00 | 0.00 | 74 | 1016.9 |
| 20260902032351 | 23 | 236 | 0.0 | 0.0 | 0.00 | 0.00 | 0.00 | 74 | 1016.6 |
| 20260902031851 | 23 | 236 | 0.0 | 0.0 | 0.00 | 0.00 | 0.00 | 74 | 1016.6 |
| 20260902031351 | 23 | 236 | 0.0 | 0.0 | 0.00 | 0.00 | 0.00 | 74 | 1016.6 |
| 20260902030851 | 23 | 236 | 0.0 | 0.0 | 0.00 | 0.00 | 0.00 | 74 | 1016.6 |
| 20260902030351 | 23 | 236 | 0.0 | 0.0 | 0.00 | 0.00 | 0.00 | 74 | 1016.6 |
| 20260902025851 | 23 | 236 | 0.0 | 0.0 | 0.00 | 0.00 | 0.00 | 73 | 1016.6 |
| 20260902025351 | 23 | 236 | 0.0 | 0.0 | 0.00 | 0.00 | 0.00 | 73 | 1016.6 |
| 20260902024851 | 23 | 236 | 0.0 | 0.0 | 0.00 | 0.00 | 0.00 | 73 | 1016.6 |
| 20260902024351 | 23 | 236 | 0.0 | 0.0 | 0.00 | 0.00 | 0.00 | 73 | 1016.3 |
| 20260902023852 | 23 | 236 | 0.0 | 0.0 | 0.00 | 0.00 | 0.00 | 72 | 1016.3 |
| 20260902023351 | 23 | 236 | 0.0 | 0.0 | 0.00 | 0.00 | 0.00 | 72 | 1016.3 |
| 20260902022851 | 23 | 252 | 4.8 | 4.8 | 0.00 | 0.00 | 0.00 | 73 | 1016.3 |
| 20260902022352 | 23 | 168 | 6.4 | 6.4 | 0.00 | 0.00 | 0.00 | 72 | 1016.3 |
| 20260902021853 | 23 | 194 | 1.6 | 1.6 | 0.00 | 0.00 | 0.00 | 73 | 1016.3 |
| 20260902021351 | 23 | 192 | 1.6 | 1.6 | 0.00 | 0.00 | 0.00 | 73 | 1016.3 |
| 20260902020852 | 24 | 156 | 0.0 | 0.0 | 0.00 | 0.00 | 0.00 | 73 | 1016.3 |
| 20260902020351 | 24 | 156 | 0.0 | 0.0 | 0.00 | 0.00 | 0.00 | 73 | 1016.3 |
| 20260902015851 | 23 | 156 | 0.0 | 0.0 | 0.00 | 0.00 | 0.00 | 73 | 1016.3 |
| 20260902015351 | 24 | 200 | 0.0 | 0.0 | 0.00 | 0.00 | 0.00 | 73 | 1016.3 |
| 20260902014852 | 24 | 37 | 0.0 | 0.0 | 0.00 | 0.00 | 0.00 | 73 | 1016.3 |
| 20260902014351 | 24 | 50 | 0.0 | 0.0 | 0.00 | 0.00 | 0.00 | 73 | 1015.9 |
| 20260902013851 | 24 | 54 | 0.0 | 0.0 | 0.00 | 0.00 | 0.00 | 72 | 1016.3 |
| 20260902013352 | 25 | 54 | 0.0 | 0.0 | 0.00 | 0.00 | 0.00 | 71 | 1016.3 |
| 20260902012852 | 25 | 6 | 0.0 | 0.0 | 0.00 | 0.00 | 0.00 | 71 | 1016.3 |
| 20260902012351 | 25 | 120 | 0.0 | 0.0 | 0.00 | 0.00 | 0.00 | 70 | 1016.3 |
| 20260902011851 | 25 | 138 | 0.0 | 0.0 | 0.00 | 0.00 | 0.00 | 70 | 1016.3 |
| 20260902011351 | 25 | 145 | 0.0 | 0.0 | 0.00 | 0.00 | 0.00 | 70 | 1016.3 |
| 20260902010851 | 25 | 233 | 1.6 | 1.6 | 0.00 | 0.00 | 0.00 | 69 | 1016.3 |
| 20260902010351 | 25 | 149 | 1.6 | 1.6 | 0.00 | 0.00 | 0.00 | 69 | 1016.3 |
| 20260902005918 | 25 | 241 | 0.0 | 0.0 | 0.00 | 0.00 | 0.00 | 69 | 1015.9 |
| 20260902005352 | 25 | 122 | 4.8 | 4.8 | 0.00 | 0.00 | 0.00 | 67 | 1015.9 |
| 20260902004851 | 25 | 356 | 1.6 | 1.6 | 0.00 | 0.00 | 0.00 | 66 | 1015.9 |
| 20260902004356 | 25 | 287 | 1.6 | 1.6 | 0.00 | 0.00 | 0.00 | 59 | 1016.3 |
| 20260902003851 | 25 | 241 | 3.2 | 3.2 | 0.00 | 0.00 | 0.00 | 65 | 1015.9 |
| 20260902003351 | 25 | 86 | 4.8 | 4.8 | 0.00 | 0.00 | 0.00 | 66 | 1015.9 |
| 20260902002851 | 26 | 74 | 3.2 | 3.2 | 0.00 | 0.00 | 0.00 | 65 | 1015.9 |
| 20260902002352 | 26 | 7 | 1.6 | 1.6 | 0.00 | 0.00 | 0.00 | 62 | 1015.9 |
| 20260902001854 | 26 | 294 | 1.6 | 1.6 | 0.00 | 0.00 | 0.00 | 62 | 1015.9 |
| 20260902001351 | 26 | 80 | 6.4 | 8.0 | 0.00 | 0.00 | 0.00 | 65 | 1016.3 |
| 20260902000851 | 26 | 74 | 0.0 | 0.0 | 0.00 | 0.00 | 0.00 | 64 | 1015.9 |
| 20260902000352 | 26 | 42 | 0.0 | 0.0 | 0.00 | 0.00 | 0.00 | 63 | 1015.9 |
| 20260901235851 | 26 | 78 | 1.6 | 1.6 | 0.00 | 0.00 | 0.00 | 62 | 1015.9 |
| 20260901235351 | 26 | 132 | 1.6 | 1.6 | 0.00 | 0.00 | 0.00 | 62 | 1015.9 |
| 20260901234852 | 26 | 67 | 3.2 | 3.2 | 0.00 | 0.00 | 0.00 | 60 | 1015.9 |
| 20260901234351 | 26 | 150 | 0.0 | 0.0 | 0.00 | 0.00 | 0.00 | 60 | 1015.9 |
| 20260901233851 | 26 | 198 | 8.0 | 8.0 | 0.00 | 0.00 | 0.00 | 58 | 1015.6 |
| 20260901233353 | 26 | 233 | 3.2 | 3.2 | 0.00 | 0.00 | 0.00 | 53 | 1015.9 |
| 20260901232851 | 26 | 276 | 3.2 | 3.2 | 0.00 | 0.00 | 0.00 | 55 | 1015.9 |
| 20260901232351 | 27 | 336 | 1.6 | 1.6 | 0.00 | 0.00 | 0.00 | 51 | 1015.6 |
| 20260901231852 | 27 | 261 | 0.0 | 0.0 | 0.00 | 0.00 | 0.00 | 48 | 1015.9 |
| 20260901231352 | 28 | 186 | 1.6 | 1.6 | 0.00 | 0.00 | 0.00 | 47 | 1015.9 |
| 20260901230852 | 28 | 90 | 3.2 | 3.2 | 0.00 | 0.00 | 0.00 | 46 | 1015.6 |
| 20260901230352 | 27 | 145 | 4.8 | 4.8 | 0.00 | 0.00 | 0.00 | 50 | 1015.6 |
| 20260901225853 | 27 | 344 | 4.8 | 4.8 | 0.00 | 0.00 | 0.00 | 46 | 1015.9 |